Weather History for Cambridge, United Kingdom

Change the Weather History Date:

Thursday, October 4, 2012

  Actual Average Record
Temperature  
Mean Temperature 50 °F -  
Max Temperature 59 °F 55 °F 69 °F (2011)
Min Temperature 41 °F 45 °F 35 °F (2008)
Degree Days  
Heating Degree Days 15    
Moisture  
Dew Point 44 °F    
Average Humidity 76    
Maximum Humidity 100    
Minimum Humidity 63    
Precipitation  
Precipitation 0.00 in - - ()
Sea Level Pressure  
Sea Level Pressure 29.76 in    
Wind  
Wind Speed 8 mph ()    
Max Wind Speed 16 mph    
Max Gust Speed -    
Visibility 6.2 miles    
Events Rain    
Averages and records for this station are not official NWS values.
T = Trace of Precipitation, MM = Missing Value Source: Averaged Metar Reports

Daily Weather History Graph

Daily Weather History Graph

Search for Another Location

Airport:

Trip Planner

Search our weather history database for the weather conditions in past years. The results will help you decide how hot, cold, wet, or windy it might be!

Date:

Astronomy

Oct. 04, 2012 Rise Set
Actual Time 7:05 AM BST 6:28 PM BST
Civil Twilight 6:32 AM BST 7:02 PM BST
Nautical Twilight 5:52 AM BST 7:41 PM BST
Astronomical Twilight 5:12 AM BST 8:21 PM BST
Moon 8:18 PM BST (10/4) 11:44 AM BST (10/4)
Length of Visible Light 12h 30m
Length of Day
11h 23m
Waning Gibbous, 83% of the Moon is Illuminated
Oct 4
Waning Gibbous
Oct 8
Last Quarter
Oct 15
New
Oct 22
First Quarter
Oct 29
Full

Hourly Weather History & Observations

Time (BST) Temp. Windchill Dew Point Humidity Pressure Visibility Wind Dir Wind Speed Gust Speed Precip Events Conditions
6:20 AM 41.0 °F 37.1 °F 39.2 °F 93% 29.65 in - SW 5.8 mph - N/A   Clear
6:50 AM 41.0 °F 36.4 °F 41.0 °F 100% 29.65 in - SW 6.9 mph - N/A   Clear
7:20 AM 42.8 °F 38.6 °F 41.0 °F 93% 29.68 in - SW 6.9 mph - N/A   Clear
7:50 AM 42.8 °F 38.6 °F 41.0 °F 93% 29.68 in - SW 6.9 mph - N/A   Clear
8:20 AM 44.6 °F 41.4 °F 42.8 °F 93% 29.68 in - SW 5.8 mph - N/A   Clear
8:50 AM 46.4 °F 43.5 °F 42.8 °F 87% 29.71 in - SW 5.8 mph - N/A   Clear
9:20 AM 48.2 °F - 44.6 °F 87% 29.71 in - SW 6.9 mph - N/A   Clear
9:50 AM 50.0 °F - 44.6 °F 82% 29.71 in - SW 8.1 mph - N/A   Clear
10:20 AM 51.8 °F - 44.6 °F 76% 29.74 in - SW 12.7 mph - N/A   Clear
10:50 AM 53.6 °F - 46.4 °F 77% 29.74 in 6.2 mi WSW 11.5 mph - N/A   Partly Cloudy
11:20 AM 55.4 °F - 46.4 °F 72% 29.74 in 6.2 mi WSW 11.5 mph - N/A   Partly Cloudy
11:50 AM 55.4 °F - 44.6 °F 67% 29.74 in 6.2 mi SW 10.4 mph - N/A   Scattered Clouds
12:20 PM 55.4 °F - 42.8 °F 63% 29.77 in 6.2 mi WSW 13.8 mph - N/A   Scattered Clouds
12:50 PM 55.4 °F - 44.6 °F 67% 29.77 in 6.2 mi WSW 12.7 mph - N/A   Scattered Clouds
1:20 PM 57.2 °F - 44.6 °F 63% 29.77 in 6.2 mi SW 16.1 mph - N/A   Mostly Cloudy
1:50 PM 57.2 °F - 44.6 °F 63% 29.80 in 6.2 mi WSW 13.8 mph - N/A   Scattered Clouds
2:20 PM 59.0 °F - 46.4 °F 63% 29.80 in 6.2 mi SW 13.8 mph - N/A   Scattered Clouds
2:50 PM 57.2 °F - 44.6 °F 63% 29.80 in 6.2 mi SW 16.1 mph - N/A   Scattered Clouds
3:50 PM 57.2 °F - 44.6 °F 63% 29.80 in 6.2 mi SW 13.8 mph - N/A   Scattered Clouds
4:20 PM 57.2 °F - 44.6 °F 63% 29.80 in 6.2 mi WSW 9.2 mph - N/A   Partly Cloudy
4:50 PM 55.4 °F - 44.6 °F 67% 29.80 in 6.2 mi SW 5.8 mph - N/A   Partly Cloudy
5:20 PM 55.4 °F - 46.4 °F 72% 29.80 in 6.2 mi Variable 3.5 mph - N/A   Partly Cloudy
5:50 PM 55.4 °F - 44.6 °F 67% 29.80 in 6.2 mi SSW 6.9 mph - N/A   Partly Cloudy
6:20 PM 53.6 °F - 44.6 °F 72% 29.80 in 6.2 mi South 6.9 mph - N/A   Partly Cloudy
6:50 PM 53.6 °F - 46.4 °F 77% 29.80 in 6.2 mi South 6.9 mph - N/A   Partly Cloudy
7:20 PM 53.6 °F - 46.4 °F 77% 29.80 in 6.2 mi South 6.9 mph - N/A   Partly Cloudy
7:50 PM 53.6 °F - 46.4 °F 77% 29.80 in 6.2 mi South 6.9 mph - N/A   Partly Cloudy
8:20 PM 53.6 °F - 46.4 °F 77% 29.80 in 6.2 mi South 6.9 mph - N/A   Partly Cloudy
8:50 PM 53.6 °F - 48.2 °F 82% 29.80 in 6.2 mi South 8.1 mph - N/A Rain Light Rain